Time,TemperatureF,DewpointF,PressureIn,WindDirection,WindDirectionDegrees,WindSpeedMPH,WindSpeedGustMPH,Humidity,HourlyPrecipIn,Conditions,Clouds,dailyrainin,SoftwareType,DateUTC
2013-01-26 10:43:00,44.0,32.6,30.17,SE,138,3.0,3.0,64,0.00,,,0.00,LWC V1.12 B30,2013-01-26 09:43:00,
2013-01-26 10:44:00,44.0,32.6,30.17,SE,140,3.0,4.0,64,0.00,,,0.00,LWC V1.12 B30,2013-01-26 09:44:00,
2013-01-26 10:45:00,44.0,32.6,30.17,SE,133,5.0,5.0,64,0.00,,,0.00,LWC V1.12 B30,2013-01-26 09:45:00,
2013-01-26 10:50:00,44.0,32.2,30.17,SE,136,4.0,7.0,63,0.00,,,0.00,LWC V1.12 B30,2013-01-26 09:50:00,
2013-01-26 10:55:00,44.4,33.0,30.17,SE,143,5.0,8.0,64,0.00,,,0.00,LWC V1.12 B30,2013-01-26 09:55:00,
2013-01-26 11:00:00,44.5,32.7,30.17,SSE,156,3.0,6.0,63,0.00,,,0.00,LWC V1.12 B30,2013-01-26 10:00:00,
2013-01-26 11:05:00,44.5,32.7,30.17,SE,130,5.0,6.0,63,0.00,,,0.00,LWC V1.12 B30,2013-01-26 10:05:00,
2013-01-26 11:10:00,44.6,33.2,30.17,SE,141,5.0,5.0,64,0.00,,,0.00,LWC V1.12 B30,2013-01-26 10:10:00,
2013-01-26 11:15:00,44.2,33.2,30.17,South,179,2.0,4.0,65,0.00,,,0.00,LWC V1.12 B30,2013-01-26 10:15:00,
2013-01-26 11:20:00,44.1,33.1,30.17,South,190,1.0,2.0,65,0.00,,,0.00,LWC V1.12 B30,2013-01-26 10:20:00,
2013-01-26 11:25:00,44.3,34.0,30.17,SSE,148,1.0,4.0,67,0.00,,,0.00,LWC V1.12 B30,2013-01-26 10:25:00,
2013-01-26 11:29:00,44.6,33.6,30.17,SE,138,2.0,4.0,65,0.00,,,0.00,LWC V1.12 B30,2013-01-26 10:29:00,
2013-01-26 11:34:00,44.1,33.5,30.17,NE,46,3.0,11.0,66,0.00,,,0.00,LWC V1.12 B30,2013-01-26 10:34:00,
2013-01-26 11:39:00,42.6,32.8,30.17,NNW,346,8.0,10.0,68,0.00,,,0.00,LWC V1.12 B30,2013-01-26 10:39:00,
2013-01-26 11:44:00,40.9,31.5,30.17,NNE,30,7.0,12.0,69,0.00,,,0.00,LWC V1.12 B30,2013-01-26 10:44:00,
2013-01-26 11:49:00,40.3,32.0,30.17,NNW,346,6.0,10.0,72,0.00,,,0.00,LWC V1.12 B30,2013-01-26 10:49:00,
2013-01-26 11:54:00,40.2,32.2,30.17,NNE,28,8.0,11.0,73,0.00,,,0.00,LWC V1.12 B30,2013-01-26 10:54:00,
2013-01-26 11:59:00,40.2,32.6,30.17,North,5,5.0,10.0,74,0.00,,,0.00,LWC V1.12 B30,2013-01-26 10:59:00,
2013-01-26 12:04:00,40.2,31.9,30.17,North,355,6.0,12.0,72,0.00,,,0.00,LWC V1.12 B30,2013-01-26 11:04:00,
2013-01-26 12:09:00,40.4,32.4,30.17,NNW,348,10.0,12.0,73,0.00,,,0.00,LWC V1.12 B30,2013-01-26 11:09:00,
2013-01-26 12:14:00,40.9,32.6,30.17,North,355,6.0,12.0,72,0.00,,,0.00,LWC V1.12 B30,2013-01-26 11:14:00,
2013-01-26 12:19:00,41.3,32.6,30.17,North,350,7.0,8.0,71,0.00,,,0.00,LWC V1.12 B30,2013-01-26 11:19:00,
2013-01-26 12:24:00,41.9,33.2,30.17,North,9,8.0,10.0,71,0.00,,,0.00,LWC V1.12 B30,2013-01-26 11:24:00,
2013-01-26 12:29:00,42.2,32.8,30.17,North,355,5.0,10.0,69,0.00,,,0.00,LWC V1.12 B30,2013-01-26 11:29:00,
2013-01-26 12:34:00,42.5,33.1,30.17,North,355,10.0,10.0,69,0.00,,,0.00,LWC V1.12 B30,2013-01-26 11:34:00,
2013-01-26 12:39:00,42.4,32.6,30.17,North,350,7.0,10.0,68,0.00,,,0.00,LWC V1.12 B30,2013-01-26 11:39:00,
2013-01-26 12:44:00,42.1,32.7,30.17,NNW,338,5.0,10.0,69,0.00,,,0.00,LWC V1.12 B30,2013-01-26 11:44:00,
2013-01-26 12:49:00,41.7,32.3,30.17,NNW,345,11.0,11.0,69,0.00,,,0.00,LWC V1.12 B30,2013-01-26 11:49:00,
2013-01-26 12:54:00,41.2,32.2,30.17,NNW,345,6.0,12.0,70,0.00,,,0.00,LWC V1.12 B30,2013-01-26 11:54:00,
2013-01-26 12:59:00,41.7,32.6,30.17,North,350,9.0,10.0,70,0.00,,,0.00,LWC V1.12 B30,2013-01-26 11:59:00,
2013-01-26 13:04:00,41.3,31.9,30.17,North,0,12.0,12.0,69,0.00,,,0.00,LWC V1.12 B30,2013-01-26 12:04:00,
2013-01-26 13:09:00,41.5,32.5,30.17,NNW,336,10.0,12.0,70,0.00,,,0.00,LWC V1.12 B30,2013-01-26 12:09:00,
2013-01-26 13:14:00,41.6,32.2,30.17,NNE,20,5.0,11.0,69,0.00,,,0.00,LWC V1.12 B30,2013-01-26 12:14:00,
2013-01-26 13:19:00,41.8,32.0,30.16,North,350,6.0,10.0,68,0.00,,,0.00,LWC V1.12 B30,2013-01-26 12:19:00,
2013-01-26 13:24:00,41.8,32.4,30.16,NNW,347,10.0,10.0,69,0.00,,,0.00,LWC V1.12 B30,2013-01-26 12:24:00,
2013-01-26 13:29:00,41.7,31.6,30.16,North,355,10.0,11.0,67,0.00,,,0.00,LWC V1.12 B30,2013-01-26 12:29:00,
2013-01-26 13:34:00,41.9,31.8,30.15,North,355,10.0,11.0,67,0.00,,,0.00,LWC V1.12 B30,2013-01-26 12:34:00,
2013-01-26 13:39:00,42.0,32.2,30.15,North,355,4.0,8.0,68,0.00,,,0.00,LWC V1.12 B30,2013-01-26 12:39:00,
2013-01-26 13:44:00,42.4,32.2,30.15,NNW,332,5.0,11.0,67,0.00,,,0.00,LWC V1.12 B30,2013-01-26 12:44:00,
2013-01-26 13:49:00,43.1,32.9,30.15,NNW,330,10.0,11.0,67,0.00,,,0.00,LWC V1.12 B30,2013-01-26 12:49:00,
2013-01-26 13:54:00,42.9,32.3,30.14,NNW,341,3.0,7.0,66,0.00,,,0.00,LWC V1.12 B30,2013-01-26 12:54:00,
2013-01-26 13:59:00,43.0,32.4,30.14,NNW,329,3.0,9.0,66,0.00,,,0.00,LWC V1.12 B30,2013-01-26 12:59:00,
2013-01-26 14:04:00,43.0,32.1,30.14,NNW,331,7.0,10.0,65,0.00,,,0.00,LWC V1.12 B30,2013-01-26 13:04:00,
2013-01-26 14:09:00,43.3,33.1,30.14,NNW,346,4.0,9.0,67,0.00,,,0.00,LWC V1.12 B30,2013-01-26 13:09:00,
2013-01-26 14:14:00,43.6,33.0,30.14,NNW,336,6.0,10.0,66,0.00,,,0.00,LWC V1.12 B30,2013-01-26 13:14:00,
2013-01-26 14:19:00,43.5,32.5,30.13,North,355,5.0,11.0,65,0.00,,,0.00,LWC V1.12 B30,2013-01-26 13:19:00,
2013-01-26 14:24:00,43.4,32.0,30.14,North,355,4.0,9.0,64,0.00,,,0.00,LWC V1.12 B30,2013-01-26 13:24:00,
2013-01-26 14:29:00,43.6,32.6,30.14,North,355,6.0,9.0,65,0.00,,,0.00,LWC V1.12 B30,2013-01-26 13:29:00,
2013-01-26 14:34:00,43.4,32.4,30.13,North,355,5.0,11.0,65,0.00,,,0.00,LWC V1.12 B30,2013-01-26 13:34:00,
2013-01-26 14:39:00,43.6,32.6,30.13,NNW,327,6.0,9.0,65,0.00,,,0.00,LWC V1.12 B30,2013-01-26 13:39:00,
2013-01-26 14:44:00,43.4,32.0,30.13,NNW,328,6.0,11.0,64,0.00,,,0.00,LWC V1.12 B30,2013-01-26 13:44:00,
2013-01-26 14:49:00,43.5,32.5,30.13,NNW,346,6.0,11.0,65,0.00,,,0.00,LWC V1.12 B30,2013-01-26 13:49:00,
2013-01-26 14:54:00,43.7,32.3,30.13,NNW,333,5.0,10.0,64,0.00,,,0.00,LWC V1.12 B30,2013-01-26 13:54:00,
2013-01-26 14:59:00,43.7,32.3,30.13,NW,323,4.0,7.0,64,0.00,,,0.00,LWC V1.12 B30,2013-01-26 13:59:00,
2013-01-26 15:04:00,43.6,32.2,30.12,NNW,340,5.0,11.0,64,0.00,,,0.00,LWC V1.12 B30,2013-01-26 14:04:00,
2013-01-26 15:09:00,43.9,32.9,30.12,North,349,4.0,7.0,65,0.00,,,0.00,LWC V1.12 B30,2013-01-26 14:09:00,
2013-01-26 15:14:00,43.6,32.6,30.11,NNW,343,5.0,8.0,65,0.00,,,0.00,LWC V1.12 B30,2013-01-26 14:14:00,
2013-01-26 15:19:00,43.7,32.7,30.11,NW,323,8.0,8.0,65,0.00,,,0.00,LWC V1.12 B30,2013-01-26 14:19:00,
2013-01-26 15:24:00,43.7,32.7,30.11,NW,323,3.0,7.0,65,0.00,,,0.00,LWC V1.12 B30,2013-01-26 14:24:00,
2013-01-26 15:29:00,43.5,32.1,30.11,North,355,2.0,4.0,64,0.00,,,0.00,LWC V1.12 B30,2013-01-26 14:29:00,
2013-01-26 15:34:00,43.4,32.0,30.11,North,355,6.0,10.0,64,0.00,,,0.00,LWC V1.12 B30,2013-01-26 14:34:00,
2013-01-26 15:39:00,43.1,31.8,30.12,NNW,345,3.0,5.0,64,0.00,,,0.00,LWC V1.12 B30,2013-01-26 14:39:00,
2013-01-26 15:44:00,43.3,32.3,30.12,NNW,331,2.0,9.0,65,0.00,,,0.00,LWC V1.12 B30,2013-01-26 14:44:00,
2013-01-26 15:49:00,43.1,31.8,30.12,NNW,338,9.0,9.0,64,0.00,,,0.00,LWC V1.12 B30,2013-01-26 14:49:00,
2013-01-26 15:54:00,43.4,32.4,30.12,North,355,2.0,5.0,65,0.00,,,0.00,LWC V1.12 B30,2013-01-26 14:54:00,
2013-01-26 15:59:00,43.4,31.7,30.12,NNW,329,4.0,6.0,63,0.00,,,0.00,LWC V1.12 B30,2013-01-26 14:59:00,
2013-01-26 16:04:00,43.3,32.3,30.12,NNW,346,4.0,5.0,65,0.00,,,0.00,LWC V1.12 B30,2013-01-26 15:04:00,
2013-01-26 16:09:00,43.1,31.8,30.13,North,0,4.0,7.0,64,0.00,,,0.00,LWC V1.12 B30,2013-01-26 15:09:00,
2013-01-26 16:14:00,43.0,31.7,30.13,NNW,337,4.0,8.0,64,0.00,,,0.00,LWC V1.12 B30,2013-01-26 15:14:00,
2013-01-26 16:19:00,42.7,31.8,30.13,NNW,327,2.0,5.0,65,0.00,,,0.00,LWC V1.12 B30,2013-01-26 15:19:00,
2013-01-26 16:24:00,42.7,31.8,30.13,NNW,330,2.0,4.0,65,0.00,,,0.00,LWC V1.12 B30,2013-01-26 15:24:00,
2013-01-26 16:29:00,42.6,31.3,30.14,NW,319,2.0,6.0,64,0.00,,,0.00,LWC V1.12 B30,2013-01-26 15:29:00,
2013-01-26 16:34:00,42.5,31.2,30.14,NNW,342,6.0,7.0,64,0.00,,,0.00,LWC V1.12 B30,2013-01-26 15:34:00,
2013-01-26 16:39:00,42.2,30.9,30.14,NW,325,3.0,5.0,64,0.00,,,0.00,LWC V1.12 B30,2013-01-26 15:39:00,
2013-01-26 16:44:00,41.9,30.6,30.14,NNW,342,4.0,6.0,64,0.00,,,0.00,LWC V1.12 B30,2013-01-26 15:44:00,
2013-01-26 16:49:00,41.6,30.7,30.14,NNW,338,6.0,6.0,65,0.00,,,0.00,LWC V1.12 B30,2013-01-26 15:49:00,
2013-01-26 16:53:00,41.2,30.3,30.14,NNW,336,4.0,7.0,65,0.00,,,0.00,LWC V1.12 B30,2013-01-26 15:53:00,
2013-01-26 16:58:00,40.9,30.4,30.14,North,351,4.0,6.0,66,0.00,,,0.00,LWC V1.12 B30,2013-01-26 15:58:00,
2013-01-26 17:03:00,40.6,30.1,30.14,North,350,4.0,7.0,66,0.00,,,0.00,LWC V1.12 B30,2013-01-26 16:03:00,
2013-01-26 17:08:00,40.3,29.9,30.14,NNW,348,4.0,4.0,66,0.00,,,0.00,LWC V1.12 B30,2013-01-26 16:08:00,
2013-01-26 17:13:00,40.0,29.6,30.14,North,0,2.0,6.0,66,0.00,,,0.00,LWC V1.12 B30,2013-01-26 16:13:00,
2013-01-26 17:18:00,39.7,29.3,30.15,North,355,4.0,6.0,66,0.00,,,0.00,LWC V1.12 B30,2013-01-26 16:18:00,
2013-01-26 17:23:00,39.5,29.5,30.15,North,355,3.0,5.0,67,0.00,,,0.00,LWC V1.12 B30,2013-01-26 16:23:00,
2013-01-26 17:28:00,39.2,29.2,30.15,North,5,5.0,7.0,67,0.00,,,0.00,LWC V1.12 B30,2013-01-26 16:28:00,
2013-01-26 17:33:00,39.1,29.1,30.15,North,0,4.0,5.0,67,0.00,,,0.00,LWC V1.12 B30,2013-01-26 16:33:00,
2013-01-26 17:38:00,39.0,29.0,30.15,North,350,3.0,5.0,67,0.00,,,0.00,LWC V1.12 B30,2013-01-26 16:38:00,
2013-01-26 17:43:00,38.8,28.8,30.15,North,350,3.0,4.0,67,0.00,,,0.00,LWC V1.12 B30,2013-01-26 16:43:00,
2013-01-26 17:48:00,38.7,28.7,30.15,North,0,5.0,6.0,67,0.00,,,0.00,LWC V1.12 B30,2013-01-26 16:48:00,
2013-01-26 17:53:00,38.5,28.9,30.16,North,350,5.0,5.0,68,0.00,,,0.00,LWC V1.12 B30,2013-01-26 16:53:00,
2013-01-26 17:58:00,38.4,28.4,30.16,North,350,4.0,5.0,67,0.00,,,0.00,LWC V1.12 B30,2013-01-26 16:58:00,
2013-01-26 18:03:00,38.4,28.8,30.16,North,355,3.0,3.0,68,0.00,,,0.00,LWC V1.12 B30,2013-01-26 17:03:00,
2013-01-26 18:08:00,38.1,28.5,30.16,NNW,341,5.0,5.0,68,0.00,,,0.00,LWC V1.12 B30,2013-01-26 17:08:00,
2013-01-26 18:13:00,37.8,28.6,30.16,North,0,1.0,3.0,69,0.00,,,0.00,LWC V1.12 B30,2013-01-26 17:13:00,
2013-01-26 18:18:00,37.4,28.2,30.17,North,5,1.0,1.0,69,0.00,,,0.00,LWC V1.12 B30,2013-01-26 17:18:00,
2013-01-26 18:23:00,36.6,28.1,30.17,North,5,0.0,0.0,71,0.00,,,0.00,LWC V1.12 B30,2013-01-26 17:23:00,
2013-01-26 18:28:00,36.0,28.2,30.17,North,5,0.0,1.0,73,0.00,,,0.00,LWC V1.12 B30,2013-01-26 17:28:00,
2013-01-26 18:33:00,35.5,28.0,30.17,North,355,3.0,4.0,74,0.00,,,0.00,LWC V1.12 B30,2013-01-26 17:33:00,
2013-01-26 18:38:00,35.4,28.0,30.17,North,349,1.0,3.0,74,0.00,,,0.00,LWC V1.12 B30,2013-01-26 17:38:00,
2013-01-26 18:43:00,35.2,27.8,30.17,NNW,347,0.0,1.0,74,0.00,,,0.00,LWC V1.12 B30,2013-01-26 17:43:00,
2013-01-26 18:48:00,34.9,27.8,30.17,North,355,1.0,2.0,75,0.00,,,0.00,LWC V1.12 B30,2013-01-26 17:48:00,
2013-01-26 18:53:00,34.7,27.9,30.18,ENE,63,1.0,2.0,76,0.00,,,0.00,LWC V1.12 B30,2013-01-26 17:53:00,
2013-01-26 18:58:00,34.8,28.0,30.18,ESE,119,1.0,2.0,76,0.00,,,0.00,LWC V1.12 B30,2013-01-26 17:58:00,
2013-01-26 19:03:00,34.5,27.7,30.18,ESE,119,1.0,1.0,76,0.00,,,0.00,LWC V1.12 B30,2013-01-26 18:03:00,
2013-01-26 19:08:00,34.3,27.9,30.18,ESE,119,0.0,1.0,77,0.00,,,0.00,LWC V1.12 B30,2013-01-26 18:08:00,
2013-01-26 19:13:00,33.5,27.1,30.19,ESE,119,0.0,1.0,77,0.00,,,0.00,LWC V1.12 B30,2013-01-26 18:13:00,
2013-01-26 19:18:00,33.0,27.2,30.19,ESE,119,0.0,1.0,79,0.00,,,0.00,LWC V1.12 B30,2013-01-26 18:18:00,
2013-01-26 19:23:00,32.5,27.0,30.19,ESE,119,0.0,2.0,80,0.00,,,0.00,LWC V1.12 B30,2013-01-26 18:23:00,
2013-01-26 19:28:00,31.9,26.4,30.19,ESE,119,0.0,0.0,80,0.00,,,0.00,LWC V1.12 B30,2013-01-26 18:28:00,
2013-01-26 19:33:00,31.7,26.8,30.19,ESE,118,0.0,1.0,82,0.00,,,0.00,LWC V1.12 B30,2013-01-26 18:33:00,
2013-01-26 19:38:00,31.4,26.6,30.19,ESE,119,1.0,1.0,82,0.00,,,0.00,LWC V1.12 B30,2013-01-26 18:38:00,
2013-01-26 19:43:00,31.2,26.6,30.20,ESE,119,0.0,1.0,83,0.00,,,0.00,LWC V1.12 B30,2013-01-26 18:43:00,
2013-01-26 19:48:00,31.5,27.2,30.20,ESE,118,2.0,2.0,84,0.00,,,0.00,LWC V1.12 B30,2013-01-26 18:48:00,
2013-01-26 19:53:00,31.9,27.6,30.20,ESE,118,0.0,1.0,84,0.00,,,0.00,LWC V1.12 B30,2013-01-26 18:53:00,
2013-01-26 19:58:00,31.7,26.8,30.20,ESE,118,0.0,2.0,82,0.00,,,0.00,LWC V1.12 B30,2013-01-26 18:58:00,
2013-01-26 20:03:00,31.6,26.7,30.20,ESE,118,0.0,1.0,82,0.00,,,0.00,LWC V1.12 B30,2013-01-26 19:03:00,
2013-01-26 20:08:00,31.6,27.0,30.20,ESE,117,1.0,2.0,83,0.00,,,0.00,LWC V1.12 B30,2013-01-26 19:08:00,
2013-01-26 20:13:00,32.1,27.5,30.20,ENE,61,2.0,2.0,83,0.00,,,0.00,LWC V1.12 B30,2013-01-26 19:13:00,
2013-01-26 20:18:00,32.6,27.7,30.20,ENE,60,2.0,7.0,82,0.00,,,0.00,LWC V1.12 B30,2013-01-26 19:18:00,
2013-01-26 20:23:00,33.2,28.0,30.20,NNE,30,4.0,7.0,81,0.00,,,0.00,LWC V1.12 B30,2013-01-26 19:23:00,
2013-01-26 20:28:00,33.9,28.1,30.20,NNE,25,2.0,5.0,79,0.00,,,0.00,LWC V1.12 B30,2013-01-26 19:28:00,
2013-01-26 20:33:00,34.1,28.0,30.20,NE,39,0.0,1.0,78,0.00,,,0.00,LWC V1.12 B30,2013-01-26 19:33:00,
2013-01-26 20:38:00,34.0,27.9,30.20,ESE,119,2.0,4.0,78,0.00,,,0.00,LWC V1.12 B30,2013-01-26 19:38:00,
2013-01-26 20:43:00,34.1,28.0,30.20,ESE,118,2.0,3.0,78,0.00,,,0.00,LWC V1.12 B30,2013-01-26 19:43:00,
2013-01-26 20:48:00,34.3,27.9,30.20,ESE,118,3.0,4.0,77,0.00,,,0.00,LWC V1.12 B30,2013-01-26 19:48:00,
2013-01-26 20:53:00,34.2,27.8,30.20,ESE,115,4.0,5.0,77,0.00,,,0.00,LWC V1.12 B30,2013-01-26 19:53:00,
2013-01-26 20:58:00,34.2,27.8,30.20,ESE,110,2.0,3.0,77,0.00,,,0.00,LWC V1.12 B30,2013-01-26 19:58:00,
2013-01-26 21:03:00,34.2,28.1,30.20,ESE,105,0.0,3.0,78,0.00,,,0.00,LWC V1.12 B30,2013-01-26 20:03:00,
2013-01-26 21:08:00,34.3,28.2,30.20,ESE,110,2.0,3.0,78,0.00,,,0.00,LWC V1.12 B30,2013-01-26 20:08:00,
2013-01-26 21:13:00,34.6,28.1,30.20,SE,124,3.0,4.0,77,0.00,,,0.00,LWC V1.12 B30,2013-01-26 20:13:00,
2013-01-26 21:18:00,34.3,27.9,30.20,SE,126,2.0,4.0,77,0.00,,,0.00,LWC V1.12 B30,2013-01-26 20:18:00,
2013-01-26 21:23:00,34.3,28.2,30.20,ESE,123,2.0,2.0,78,0.00,,,0.00,LWC V1.12 B30,2013-01-26 20:23:00,
2013-01-26 21:28:00,34.3,28.2,30.21,SE,124,2.0,3.0,78,0.00,,,0.00,LWC V1.12 B30,2013-01-26 20:28:00,
2013-01-26 21:33:00,33.9,27.8,30.21,SE,124,0.0,2.0,78,0.00,,,0.00,LWC V1.12 B30,2013-01-26 20:33:00,
2013-01-26 21:38:00,32.9,27.1,30.21,SE,124,0.0,0.0,79,0.00,,,0.00,LWC V1.12 B30,2013-01-26 20:38:00,